Regional Weather Roundup
Issued by NWS State College, PA

Home | Current Version | Previous Version | Graphics & Text | Print | Product List | Glossary Off
Versions: 1 2 3 4 5 6 7 8 9 10 11 12 13 14 15 16 17 18 19 20 21 22 23 24 25 26 27 28 29 30 31 32 33 34 35 36 37 38 39 40 41 42 43 44 45 46 47 48 49 50

368
ASUS41 KCTP 281210
RWRCTP

REGIONAL WEATHER ROUNDUP
NATIONAL WEATHER SERVICE STATE COLLEGE PA
800 AM EDT THU JUL 28 2016

Note: "fair" indicates few or no clouds below 12,000 feet with no
significant weather and/or obstructions to visibility.

* = STATION THAT DOES NOT REPORT PRECIPITATION /E.G. RAIN...SNOW...ETC/
    THUNDER OR FOG.

PAZ002>004-007>009-013>016-020>023-029>032-281300-
WESTERN PENNSYLVANIA

CITY           SKY/WX    TMP DP  RH WIND       PRES   REMARKS
ERIE           CLOUDY    71  62  73 CALM      29.94R
MEADVILLE      PTSUNNY   69  61  75 CALM      29.97R
FRANKLIN*      PTSUNNY   66  61  82 SE5       29.98S
NEW CASTLE     PTSUNNY   68  65  90 CALM      29.95R
BEAVER COUNTY  SUNNY     72  63  73 CALM      29.94S
BUTLER*        CLOUDY    70  63  78 E5        29.98R
PITTSBURGH INT CLOUDY    71  66  84 S3        29.94S
PITTSBURGH     MOSUNNY   73  68  84 S5        29.94S HAZE
INDIANA*       MOSUNNY   70  64  83 CALM      30.00S HAZE
LATROBE        PTSUNNY   70  68  94 CALM      29.97R
WASHINGTON CO* CLOUDY    72  68  88 CALM      29.96R
$$

PAZ004>006-010>012-017>019-024>028-033>037-041-042-045-046-049>053-281300-
CENTRAL PENNSYLVANIA

CITY           SKY/WX    TMP DP  RH WIND       PRES   REMARKS
BRADFORD       MOSUNNY   63  59  87 CALM      30.02R
DUBOIS         PTSUNNY   68  60  75 E3        29.99R
CLEARFIELD     PTSUNNY   64  59  83 CALM      29.99S
JOHNSTOWN      CLOUDY    71  61  70 S5        30.02R
ALTOONA        MOSUNNY   72  62  71 NW3       29.99R
STATE COLLEGE  PTSUNNY   66  61  82 CALM      29.98R
WILLIAMSPORT   MOSUNNY   68  61  78 CALM      29.94S
SELINSGROVE    MOSUNNY   69  68  96 CALM      29.95R
FT INDIANTOWN  MOSUNNY   73  65  75 NE1       29.94R
CAPITAL CITY   PTSUNNY   77  68  73 CALM      29.92S
HARRISBURG     PTSUNNY   77  70  79 CALM      29.92R
YORK           PTSUNNY   74  70  87 CALM      29.93R
$$

PAZ038>040-043-044-047-048-054-055-060>062-067>071-281300-
EASTERN PENNSYLVANIA

CITY           SKY/WX    TMP DP  RH WIND       PRES   REMARKS
SCRANTON       MOSUNNY   71  61  70 CALM      29.96S
MOUNT POCONO   SUNNY     72  61  68 NW3       30.01R
ALLENTOWN      SUNNY     72  65  78 CALM      29.94R
QUAKERTOWN*    SUNNY     73  66  78 CALM      29.95S
READING        SUNNY     74  65  73 CALM      29.92S
LANCASTER      PTSUNNY   72  67  84 CALM      29.93R
COATESVILLE    MOSUNNY   77  66  69 CALM      29.96R
POTTSTOWN      SUNNY     74  67  78 CALM      29.95S
BLUE BELL      MOSUNNY   73  70  88 CALM      29.93R
DOYLESTOWN     SUNNY     73  69  87 CALM      29.93S
WILLOW GROVE   NOT AVBL
NORTH PHILA    MOSUNNY   81  75  82 CALM      29.94R
PHILADELPHIA   PTSUNNY   81  71  71 CALM      29.92R
$$




USA.gov is the U.S. government's official web portal to all federal, state and local government web resources and services.